[[{"header":{"parameterUnit":"m.s-1","parameterCategory":1,"la1":30.2991,"la2":30.254,"lo1":-89.0895,"lo2":-89.0444,"dy":0.0017,"dx":0.0017,"nx":28,"ny":28,"refTime":"2025-05-27T03:00:00:Z","depth":0,"parameterNumber":2,"parameterNumberName":"U-component_of_WINDS"},"data":[0,0,0,0,0,0,0,0,0,0,0,0,0,0,0,0,0,0,0,0,0,0,0,0,0,0,0,0,0,0,0,0,0,0,0,0,0,0,0,0,0,0,0,0,0,0,0,0,0,0,0,0,0,0,0,0,0,0,0.5766,0.5766,0,0.5784,0.5784,0.5785,0.5769,0.5768,0.5767,0.5767,0.5785,0.5786,0.5787,0,0,0,0,0,0,0,0,0,0,0,0,0,0.5714,0.5715,0.5766,0.5766,0.5766,0.5784,0.5784,0.5785,0.5769,0.5768,0.5767,0.5767,0.5785,0.5786,0.5787,0,0,0,0,0,0,0,0,0,0,0,0,0,0.5735,0.5716,0.5766,0.576,0.576,0.5784,0.5784,0.5785,0.5769,0.5768,0.5767,0.5766,0.5784,0.5786,0.5787,0.5817,0,0,0.5792,0.5793,0,0,0,0,0,0,0,0,0.5734,0.5737,0.5761,0.5761,0.5761,0.5773,0.5773,0.5796,0.5769,0.5766,0.5767,0.5766,0.5782,0.5784,0.5789,0.5818,0.5819,0.5793,0.5794,0.5794,0.5795,0,0,0,0,0,0,0,0.5733,0.5736,0.5773,0.5761,0.5761,0.5756,0.5758,0.5777,0.5779,0.5766,0.5765,0.5767,0.5781,0.5788,0.5789,0.5819,0.5792,0.5794,0.5795,0.5796,0.5871,0.5872,0,0,0,0,0,0,0.5732,0.5735,0.5772,0.5773,0.5745,0.5758,0.576,0.577,0.5779,0.5779,0.5768,0.5766,0.5785,0.5788,0.579,0.5824,0.5794,0.5796,0.5797,0.587,0.5871,0.5872,0,0,0,0,0,0,0.5731,0.5735,0.5772,0.5754,0.5758,0.576,0.5771,0.5771,0.5777,0.578,0.578,0.5774,0.5785,0.5788,0.581,0.5824,0.5796,0.5798,0.5869,0.587,0.5872,0.5893,0,0,0,0,0,0,0.5729,0.5735,0.5747,0.5754,0.5759,0.5792,0.5772,0.5772,0.578,0.5778,0.5786,0.5786,0.5784,0.5808,0.5812,0.5826,0.5799,0.5868,0.587,0.5871,0.5891,0.5895,0.5898,0,0,0,0,0,0.5728,0.5752,0.5748,0.5752,0.5774,0.5793,0.5796,0.5793,0.5781,0.5793,0.5795,0.5786,0.5822,0.581,0.5815,0.583,0.5867,0.5869,0.5871,0.5889,0.5894,0.5898,0,0,0,0,0,0,0.5747,0.5753,0.5748,0.5776,0.5784,0.579,0.5805,0.5798,0.5809,0.5807,0.5803,0.5804,0.5828,0.5831,0.5817,0.5858,0.5843,0.5846,0.5855,0.5859,0.5863,0.5861,0.5801,0,0,0,0,0,0.5754,0.5769,0.5774,0.5798,0.5802,0.5803,0.5811,0.5808,0.5816,0.5819,0.5823,0.583,0.5843,0.5851,0.5864,0.5891,0.5892,0.5904,0.5907,0.5911,0.5913,0.5926,0.5931,0.588,0.588,0.588,0,0,0.577,0.5775,0.5785,0.5802,0.5808,0.5823,0.5806,0.5823,0.5833,0.5821,0.5842,0.5845,0.5853,0.5878,0.5889,0.5881,0.5927,0.5913,0.5916,0.5917,0.5929,0.5934,0.5938,0.5881,0.5881,0.5881,0,0,0.5805,0.5812,0.5832,0.5837,0.5846,0.5846,0.5851,0.5858,0.5859,0.588,0.5871,0.5883,0.5906,0.5912,0.5917,0.5954,0.5946,0.5958,0.5977,0.599,0.5993,0.5997,0.6008,0.6012,0.596,0.5961,0.5961,0,0.5823,0.5846,0.5843,0.5859,0.5866,0.5857,0.5876,0.5882,0.5894,0.5899,0.589,0.5917,0.5922,0.5947,0.5956,0.5961,0.5966,0.5956,0.5993,0.5997,0.6,0.6011,0.6015,0.5962,0.5962,0.5962,0.5961,0,0.5866,0.5882,0.5897,0.5908,0.5917,0.5936,0.5934,0.5943,0.5939,0.594,0.596,0.5966,0.5978,0.5984,0.5981,0.6008,0.6003,0.5994,0.5978,0.6006,0.6016,0.602,0.5964,0.5963,0.5963,0.5963,0,0,0.5915,0.5923,0.5929,0.5933,0.5941,0.5953,0.597,0.5982,0.5989,0.5998,0.6011,0.603,0.6021,0.6028,0.6025,0.6036,0.6062,0.6026,0.6026,0.6031,0.6091,0.6096,0.6101,0.6058,0.6058,0.6059,0.609,0,0.5949,0.5979,0.5976,0.6003,0.6017,0.6007,0.6021,0.6028,0.6028,0.6039,0.604,0.6053,0.6041,0.6045,0.6056,0.6057,0.6074,0.6055,0.6069,0.6069,0.6065,0.6107,0.6113,0.6141,0.6094,0.6094,0.6095,0,0.5993,0.6002,0.6032,0.6036,0.6042,0.6055,0.6065,0.6076,0.6082,0.6082,0.6088,0.6083,0.6099,0.6084,0.6105,0.6092,0.6098,0.6099,0.61,0.61,0.6083,0.6106,0.6151,0.6154,0.6101,0.6101,0.61,0,0.6023,0.6043,0.6062,0.6067,0.6073,0.6082,0.6086,0.6091,0.6098,0.6106,0.611,0.6121,0.6126,0.6134,0.6131,0.6121,0.6152,0.6137,0.6151,0.6151,0.6158,0.6157,0.6202,0.6164,0.6164,0.6163,0.6163,0,0.6061,0.6078,0.6076,0.6087,0.6106,0.6103,0.6121,0.6123,0.6128,0.6139,0.6132,0.6143,0.6139,0.6149,0.6147,0.6164,0.6167,0.6166,0.6165,0.6166,0.6166,0.6169,0.6166,0.6165,0.6164,0.6164,0.6164,0,0.6097,0.6096,0.6116,0.612,0.6122,0.6135,0.6139,0.6149,0.6149,0.6164,0.6167,0.6166,0.6178,0.6176,0.6189,0.6188,0.6208,0.6206,0.6206,0.6205,0.6218,0.6216,0.6265,0.6271,0.623,0.6231,0.6231,0,0.612,0.6133,0.6139,0.6146,0.6149,0.6161,0.6167,0.6164,0.6171,0.6179,0.6188,0.6199,0.6207,0.6226,0.6226,0.6236,0.6233,0.6249,0.6234,0.6234,0.6231,0.6229,0.623,0.6252,0.6252,0.6252,0.6253,0,0.6161,0.616,0.617,0.6179,0.6187,0.6194,0.6201,0.6207,0.6204,0.6212,0.6224,0.623,0.6243,0.6253,0.6262,0.6264,0.6258,0.6258,0.6261,0.6261,0.626,0.6259,0.6212,0.6256,0.6256,0.6256,0.6255,0.6255,0.619,0.6201,0.6206,0.6217,0.6221,0.6227,0.6237,0.6238,0.6247,0.6257,0.6255,0.6267,0.6272,0.6283,0.6286,0.6296,0.629,0.6295,0.6296,0.6297,0.6298,0.626,0.6298,0.6297,0.6297,0.6297,0.6297,0,0.6229,0.6232,0.6242,0.6251,0.6259,0.6252,0.6259,0.6266,0.6277,0.6282,0.6291,0.6303,0.6313,0.6314,0.6323,0.633,0.6327,0.6332,0.6331,0.6331,0.6304,0.6299,0.6335,0.6335,0.6335,0.6335,0.6335,0.6335,0.6251,0.6268,0.6267,0.6285,0.6287,0.63,0.6304,0.6309,0.6313,0.6327,0.6335,0.6335,0.6339,0.6348,0.6356,0.6356,0.6359,0.6365,0.6364,0.6337,0.6334,0.633,0.6326,0.6366,0.6366,0.6391,0.6391,0.6391]},{"header":{"parameterUnit":"m.s-1","parameterCategory":1,"la1":30.2991,"la2":30.254,"lo1":-89.0895,"lo2":-89.0444,"dy":0.0017,"dx":0.0017,"nx":28,"ny":28,"refTime":"2025-05-27T03:00:00:Z","depth":0,"parameterNumber":3,"parameterNumberName":"V-component_of_WINDS"},"data":[0,0,0,0,0,0,0,0,0,0,0,0,0,0,0,0,0,0,0,0,0,0,0,0,0,0,0,0,0,0,0,0,0,0,0,0,0,0,0,0,0,0,0,0,0,0,0,0,0,0,0,0,0,0,0,0,0,0,3.5874,3.5874,0,3.5933,3.5934,3.5934,3.589,3.5888,3.5886,3.5885,3.594,3.5943,3.5946,0,0,0,0,0,0,0,0,0,0,0,0,0,3.5716,3.5719,3.5874,3.5874,3.5875,3.5933,3.5934,3.5934,3.5891,3.5888,3.5886,3.5884,3.5939,3.5942,3.5946,0,0,0,0,0,0,0,0,0,0,0,0,0,3.5781,3.572,3.5874,3.586,3.586,3.5933,3.5934,3.5935,3.5891,3.5888,3.5885,3.5883,3.5937,3.5942,3.5947,3.6034,0,0,3.5962,3.5964,0,0,0,0,0,0,0,0,3.5777,3.5786,3.5862,3.5861,3.5861,3.5901,3.5898,3.5968,3.5892,3.5879,3.5885,3.5881,3.5929,3.5934,3.5951,3.6037,3.6039,3.5962,3.5965,3.5967,3.5968,0,0,0,0,0,0,0,3.5773,3.5784,3.5897,3.5863,3.5862,3.5849,3.5855,3.5911,3.5919,3.588,3.5877,3.5885,3.5928,3.5947,3.5952,3.604,3.5962,3.5966,3.5969,3.5971,3.6197,3.62,0,0,0,0,0,0,3.577,3.578,3.5895,3.5899,3.5811,3.5854,3.5861,3.5891,3.5918,3.592,3.5887,3.5883,3.594,3.5947,3.5954,3.6057,3.5967,3.5972,3.5974,3.6194,3.6198,3.6201,0,0,0,0,0,0,3.5767,3.5781,3.5893,3.5839,3.5852,3.586,3.5894,3.5894,3.5913,3.5924,3.5924,3.5905,3.5938,3.5947,3.6014,3.6058,3.5974,3.5978,3.619,3.6195,3.6199,3.6263,0,0,0,0,0,0,3.5763,3.578,3.5815,3.584,3.5855,3.5954,3.5897,3.5897,3.5922,3.5916,3.5941,3.5942,3.5936,3.6007,3.6019,3.6063,3.5982,3.6186,3.6192,3.6198,3.6257,3.6269,3.628,0,0,0,0,0,3.5757,3.583,3.5817,3.5831,3.5899,3.5957,3.5965,3.5958,3.5926,3.5959,3.5966,3.5942,3.6052,3.6015,3.6028,3.6073,3.6184,3.6191,3.6197,3.6252,3.6267,3.628,0,0,0,0,0,0,3.5808,3.5833,3.5819,3.5902,3.5928,3.5949,3.5992,3.5975,3.6009,3.6002,3.599,3.5996,3.6066,3.6077,3.6035,3.6158,3.6112,3.6122,3.6149,3.6163,3.6174,3.617,3.5986,0,0,0,0,0,3.5829,3.5876,3.5894,3.5966,3.5979,3.5984,3.6008,3.6001,3.6026,3.6037,3.6048,3.6072,3.6112,3.6138,3.6176,3.6259,3.6262,3.6296,3.6308,3.6317,3.6325,3.6368,3.6383,3.6224,3.6224,3.6224,0,0,3.5872,3.5892,3.5922,3.5976,3.5995,3.6042,3.5993,3.6044,3.6078,3.6044,3.6108,3.6118,3.6143,3.6218,3.6252,3.6229,3.637,3.6326,3.6333,3.6336,3.6377,3.6392,3.6405,3.6229,3.6228,3.6227,0,0,3.5975,3.5996,3.6057,3.6077,3.6107,3.6109,3.6124,3.6148,3.6154,3.6218,3.6193,3.6232,3.6301,3.632,3.6339,3.6448,3.6425,3.646,3.6519,3.6561,3.6573,3.6584,3.6621,3.6635,3.6469,3.6469,3.6469,0,3.6025,3.6096,3.609,3.6143,3.6167,3.614,3.62,3.6219,3.6259,3.6275,3.6249,3.6335,3.635,3.6428,3.6455,3.6472,3.6486,3.6457,3.6572,3.6583,3.6593,3.6628,3.6643,3.6473,3.6472,3.6472,3.6471,0,3.6154,3.6204,3.6249,3.629,3.6319,3.6376,3.6376,3.6405,3.6395,3.6399,3.6464,3.6482,3.6522,3.654,3.653,3.6616,3.6601,3.6574,3.6527,3.6612,3.6645,3.6659,3.6478,3.6477,3.6476,3.6475,0,0,3.629,3.6327,3.6344,3.6361,3.6392,3.6429,3.6483,3.6524,3.6549,3.6577,3.662,3.6679,3.6655,3.6676,3.6668,3.6705,3.6788,3.6673,3.6673,3.6692,3.6882,3.6901,3.6917,3.6774,3.6776,3.6778,3.6879,0,3.6393,3.649,3.6486,3.6575,3.6619,3.6594,3.6641,3.6664,3.6669,3.6705,3.671,3.6752,3.6717,3.6729,3.6764,3.677,3.6825,3.6763,3.6812,3.6814,3.6805,3.6934,3.6955,3.7049,3.6892,3.6894,3.6896,0,3.6527,3.6561,3.6655,3.6679,3.6697,3.674,3.6775,3.6812,3.6836,3.6837,3.6861,3.6846,3.6899,3.6852,3.6922,3.688,3.69,3.6905,3.6909,3.6912,3.6859,3.6939,3.7079,3.7093,3.6916,3.6914,3.6913,0,3.6614,3.6684,3.6749,3.6765,3.6794,3.6824,3.6838,3.6859,3.6884,3.6914,3.6929,3.6966,3.6985,3.7012,3.7007,3.6973,3.7078,3.7031,3.7078,3.7079,3.7101,3.7099,3.7244,3.7116,3.7116,3.7116,3.7115,0,3.6729,3.6787,3.6789,3.6829,3.6892,3.6886,3.6948,3.6958,3.6977,3.7017,3.6997,3.7034,3.7025,3.7062,3.7058,3.7116,3.7125,3.7125,3.7123,3.7127,3.7126,3.7138,3.7131,3.7119,3.7118,3.7118,3.7117,0,3.6837,3.6841,3.691,3.6932,3.6939,3.6985,3.7003,3.7039,3.7043,3.7093,3.7104,3.7109,3.7151,3.7149,3.7195,3.7193,3.7264,3.7255,3.7256,3.7254,3.7301,3.7296,3.7457,3.7477,3.7338,3.7339,3.734,0,3.6909,3.6954,3.6981,3.7007,3.7023,3.7065,3.709,3.7084,3.711,3.7141,3.7173,3.7214,3.7245,3.7312,3.7319,3.7354,3.7344,3.7399,3.7349,3.7351,3.7343,3.734,3.7344,3.7408,3.7409,3.7411,3.7412,0,3.7037,3.7036,3.7074,3.7113,3.7143,3.7173,3.7199,3.7221,3.7218,3.7248,3.7292,3.7316,3.7364,3.7403,3.7437,3.7448,3.7429,3.7427,3.744,3.7443,3.7441,3.7441,3.7281,3.7423,3.7422,3.7421,3.7421,3.742,3.7128,3.7166,3.7191,3.7233,3.7253,3.7279,3.7314,3.7322,3.7359,3.7399,3.7393,3.744,3.7462,3.7505,3.7519,3.7555,3.7536,3.7554,3.7559,3.7563,3.7568,3.7437,3.7561,3.7561,3.7561,3.756,3.756,0,3.7253,3.7268,3.7307,3.7346,3.7379,3.736,3.7389,3.7417,3.746,3.7482,3.7514,3.7563,3.76,3.761,3.7646,3.7672,3.7664,3.7682,3.7679,3.7681,3.7584,3.7569,3.7688,3.7688,3.7688,3.7687,3.7687,3.7687,3.7322,3.7385,3.7387,3.7458,3.7472,3.752,3.7538,3.756,3.7578,3.7634,3.7666,3.7673,3.7689,3.7726,3.7759,3.7761,3.7774,3.7795,3.7793,3.7701,3.7688,3.7676,3.7662,3.7798,3.7798,3.7887,3.7888,3.7889]}]]